Location: Haliburton Scout Reserve
(45.0900°N, 78.3200°W)
Time: 11:07:14
(UTC-05:00)

N. Korean satellite - Pass Details

Date: 05 December 2021
Orbit: 447 x 491 km, 97.3° (Epoch: 23 January)

Event Time Altitude Azimuth Distance (km) Brightness Sun altitude
Rises 05:37:52 0° 10° (N) 2,466 10.1 -20.1°
Reaches altitude 10° 05:39:55 10° 9° (N) 1,585 9.1 -19.8°
Maximum altitude 05:43:17 77° 285° (WNW) 465 6.2 -19.2°
Drops below altitude 10° 05:46:39 10° 198° (SSW) 1,570 9.1 -18.6°
Sets 05:48:40 0° 197° (SSW) 2,438 10.1 -18.3°
